Location: Newark
(46.7000°N, 60.6000°W)
Time: 15:18:03
(UTC+00:00)

A-11 Canister half - Pass Details

Date: 06 November 2020
Orbit: 1516 x 1684 km, 47.2° (Epoch: 03 December)

Event Time Altitude Azimuth Distance (km) Brightness Sun altitude
Rises 21:03:46 0° 217° (SW) 4,909 12.7 -4.8°
Reaches altitude 10° 21:07:04 10° 211° (SSW) 3,932 12.0 -5.3°
Maximum altitude 21:16:32 47° 142° (SE) 2,128 9.6 -6.9°
Drops below altitude 10° 21:25:58 10° 73° (ENE) 3,924 10.4 -8.4°
Enters shadow 21:26:06 10° 73° (ENE) 3,962 10.5 -8.5°
